AirNav   Everest Fuels
 
 484 users online  

39TN Big Sandy Airpark
Big Sandy, Tennessee, USA

GOING TO BIG SANDY?


FAA INFORMATION EFFECTIVE 15 JULY 2021

Location

FAA Identifier: 39TN
Lat/Long: 36-16-47.0000N 088-02-37.0000W
36-16.783333N 088-02.616667W
36.2797222,-88.0436111
(estimated)
Elevation: 632 ft. / 193 m (estimated)
From city: 5 miles NE of BIG SANDY, TN
Time zone: UTC -5 (UTC -6 during Standard Time)
Zip code: 38221

Airport Operations

Airport use: Private use. Permission required prior to landing
Activation date: 08/2005
Control tower: no
ARTCC: MEMPHIS CENTER
FSS: JACKSON FLIGHT SERVICE STATION
Attendance: UNATNDD
Wind indicator: yes
Segmented circle: no

Airport Communications

WX AWOS-3 at PHT (17 nm W): 118.825 (731-644-0451)

Nearby radio navigation aids

VOR radial/distance  VOR name  Freq  Var
CKVr237/36.7CLARKSVILLE VOR/DME110.6001W

 
NDB name  Hdg/Dist  Freq  Var  ID
TRAINER084/18.141000ETIQ - .. --.-

Airport Services

Runway Information

Runway 3/21

Dimensions: 3000 x 50 ft. / 914 x 15 m
Surface: turf
RUNWAY 3  RUNWAY 21
Traffic pattern: leftleft
Obstructions: 50 ft. trees50 ft. trees

Airport Ownership and Management from official FAA records

Ownership: Privately-owned
Owner: MIKE CHASE
26 FORKED OAK LANE
HUMBODT, TN 38343
Phone 731-618-1706
Manager: MIKE CHASE
26 FORKED OAK LANE
HUMBODT, TN 38343
Phone 731-618-1706

Airport Operational Statistics

Aircraft based on the field: 3
Single engine airplanes: 3
    

Additional Remarks

FOR CD CTC MEMPHIS ARTCC AT 901-368-8453/8449.

Instrument Procedures

There are no published instrument procedures at 39TN.

Some nearby airports with instrument procedures:

0M4 - Benton County Airport (17 nm S)
KPHT - Henry County Airport (17 nm W)
0M5 - Humphreys County Airport (18 nm SE)
KHZD - Carroll County Airport (23 nm SW)
KCEY - Kyle-Oakley Field Airport (28 nm NW)
 
Loc | Ops | Rwys | IFR | FBO | Links
Com | Nav | Svcs | Stats | Notes
Area around 39TN (Big Sandy Airpark)
 
Road maps at: MapQuest Bing Google
 
Aerial photo
No photo
 
Sectional chart

 
Airport distance calculator
Flying to Big Sandy Airpark? Find the distance to fly.

From to 39TN

Sunrise and sunset
Times for 03-Aug-2021
 Local
(UTC-5)
 Zulu
(UTC)
Morning civil twilight05:3310:33
Sunrise06:0111:01
Sunset19:5500:55
Evening civil twilight20:2301:23

Current date and time
Zulu (UTC)  03-Aug-2021 10:10:32
Local (UTC-5)  03-Aug-2021 05:10:32
 
METAR
KPHT 
17nm W 
030955Z AUTO 00000KT 3SM BR FEW048 BKN055 14/14 A3003 RMK A01
KCEY 
28nm NW 
030955Z AUTO 30003KT 10SM CLR 16/15 A3004 RMK AO1
KM02 
31nm E 
030955Z AUTO 00000KT 10SM BKN037 BKN047 OVC055 15/14 A3002 RMK A01
KEOD 
32nm NE 
030958Z AUTO 00000KT 10SM CLR 16/14 A3002 RMK AO2 SLP164 T01580142
TAF
KHOP 
35nm NE 
030800Z 0308/0414 01008KT 9999 FEW075 QNH2999INS TX27/0320Z TN16/0311Z
KCKV 
36nm NE 
030520Z 0306/0406 00000KT P6SM SKC FM030900 00000KT 5SM BR SKC FM031400 01007KT P6SM SCT250
NOTAMs
Click for the latest NOTAMs
NOTAMs are issued by the DoD/FAA and will open in a separate window not controlled by AirNav.

 

 
 

Would you like to see your business listed on this page?

 If your business provides an interesting product or service to pilots, flight crews, aircraft, or users of the Big Sandy Airpark, you should consider listing it here.  To start the listing process, click on the button below
 
Add a business
 

Other Pages about Big Sandy Airpark

Update a link
 
Copyright © AirNav, LLC. All rights reserved. Privacy Policy  Contact